Lapse_Rate
6.9 6.8 6.1 5.8 5.1 5.1 5.0 4.7 4.7 4.8 4.7 4.5 4.3 4.3 4.1 3.8 4.0 3.9 3.9 3.7 3.6 4.5
8.4 6.7 6.4 6.2 6.2 6.2 5.4 5.0 4.9 4.8 4.7 4.6 4.6 4.8 4.4 4.1 4.2 3.8 3.8 3.4 3.7 4.7
8.9 7.6 7.4 7.2 5.9 5.4 5.2 5.0 4.8 4.7 4.8 5.1 4.6 4.6 4.3 3.0 4.2 4.1 3.4 4.1 4.2 4.9
8.5 8.3 7.4 6.7 6.0 5.8 5.4 5.4 5.1 4.8 4.7 5.3 4.6 4.6 4.1 4.4 4.4 4.0 3.8 3.5 4.8 4.7
6.9 7.6 6.6 6.6 5.5 5.6 5.3 5.2 5.0 4.6 4.7 5.2 4.8 5.0 4.7 4.3 4.2 4.2 4.0 5.1 4.5 4.6
5.1 5.6 5.2 5.2 5.4 5.8 4.9 4.7 5.1 4.6 4.8 4.0 4.0 4.4 4.5 4.3 4.2 4.4 4.7 4.5 4.7 4.9
5.4 5.0 4.9 4.1 3.7 4.3 4.5 4.2 3.7 4.3 4.0 4.2 4.1 4.0 4.2 4.5 4.7 4.3 4.5 4.5 4.4 4.5
7.0 5.8 4.7 4.1 4.2 4.7 4.2 3.8 4.2 4.2 4.4 4.0 3.8 4.0 3.9 4.0 4.3 4.7 4.8 4.8 4.9 4.8
6.2 5.9 4.7 4.0 3.6 4.1 4.2 3.9 4.1 4.4 3.6 3.1 3.2 2.5 2.5 3.9 4.3 4.5 4.7 4.6 4.8 5.2
5.4 4.2 4.3 3.8 4.0 3.8 3.4 3.6 3.6 3.6 3.8 3.4 2.4 2.4 2.5 2.5 4.3 4.5 4.3 4.1 4.3 4.7
4.9 4.5 4.4 4.4 4.0 3.4 3.5 3.5 3.6 3.9 3.7 2.9 2.3 2.4 2.6 2.8 4.2 4.6 4.9 4.6 4.2 4.2
4.3 3.6 3.9 3.5 3.6 4.1 3.5 3.6 3.5 3.8 4.0 3.7 2.8 2.3 2.4 2.9 4.5 4.4 4.7 5.1 5.3 5.0
3.1 3.2 3.3 3.0 3.5 3.5 3.7 2.9 2.9 3.4 3.6 2.7 3.8 1.7 2.3 3.0 4.6 4.3 4.6 5.2 6.3 8.2
3.9 3.3 3.3 2.9 3.2 3.2 2.7 3.3 3.7 3.5 3.9 4.0 3.2 3.2 2.5 2.7 3.6 4.3 4.8 6.0 7.4 8.2
Wind_Speed
7 7 8 8 9 8 7 8 8 8 9 10 9 8 9 5 5 5 4 5 6 3
12 12 9 11 10 7 10 9 10 10 9 9 9 8 7 5 6 6 4 5 5 4
10 12 11 10 11 11 11 11 11 11 9 8 8 7 8 5 6 6 5 3 6 3
11 11 12 11 12 11 12 12 12 11 10 8 8 5 8 7 6 7 6 6 3 4
10 10 11 11 12 12 12 11 11 11 9 9 8 7 8 7 6 6 6 3 3 4
7 10 11 12 11 11 12 11 11 11 9 9 8 8 7 6 6 7 5 4 4 3
9 9 10 11 13 11 11 11 12 10 9 8 8 7 6 6 5 6 4 3 3 4
14 11 11 12 12 11 11 11 11 10 8 8 7 5 6 6 6 4 3 3 3 2
12 12 11 12 13 11 11 11 10 8 9 9 6 10 10 6 4 3 3 3 4 4
11 12 12 13 12 11 11 10 9 8 8 9 8 10 8 6 3 2 3 3 4 4
11 12 12 12 11 11 10 10 8 7 7 8 6 7 6 4 2 3 3 2 4 5
11 12 11 11 10 9 9 8 8 6 7 6 5 5 5 6 3 3 4 3 4 4
11 11 11 11 9 8 7 8 6 6 6 4 4 5 5 5 3 3 4 5 5 5
10 11 10 10 8 8 7 6 6 6 4 3 3 4 3 4 4 4 5 5 5 5
Wind_Direction
150 142 150 145 138 140 138 132 134 124 116 116 115 114 108 97 91 87 75 66 52 57
159 139 149 144 138 138 126 131 125 120 118 117 117 120 107 108 106 86 75 69 71 47
138 141 144 136 127 131 128 127 123 117 115 120 108 109 108 85 89 104 75 64 67 47
130 140 139 136 131 133 127 128 121 119 117 126 115 109 95 103 95 91 91 66 58 67
119 127 125 130 123 128 121 117 121 114 112 116 102 104 97 105 85 85 73 89 69 61
114 118 128 127 117 117 116 116 110 113 117 102 104 105 97 97 93 87 86 60 45 34
131 127 133 124 115 117 118 115 105 102 102 109 102 98 96 94 90 84 86 73 46 22
133 132 125 116 111 122 108 102 107 110 113 105 92 86 100 86 77 70 56 65 35 16
130 135 120 113 107 104 110 105 108 122 110 92 94 87 65 57 74 63 37 9 351 359
130 123 120 112 117 114 108 110 107 105 103 107 93 84 79 38 68 11 35 356 330 332
127 119 119 121 116 113 113 111 111 111 104 93 87 80 68 17 12 349 348 335 336 335
127 119 120 110 108 111 111 113 107 110 111 109 104 74 44 357 348 333 320 341 327 335
116 116 115 114 117 110 104 108 110 102 92 61 117 76 32 358 328 329 337 336 319 287
117 112 113 111 116 113 111 124 118 121 124 118 42 97 30 357 340 351 332 314 312 316